sat.trackr.live / text

‹ back to catalog

STARLINK-31267

NORAD 59468 · 2024-068P

PAYLOAD ACTIVE UNKNOWN

§ Identity

Operator
Country
US
Launch date
2024-04-10
Launch site
AFETR
Launch vehicle
Mass (kg)
RCS (m²)

Purposes: comms

External: N2YO · Heavens-Above · Gunter

§ Orbital elements

Epoch: 2026-09-21T08:10:31.541376Z

Period
94.27 min
Inclination
43.0057°
Eccentricity
0.0001540
Mean motion
15.27576730 rev/d
Perigee alt
482.0 km
Apogee alt
484.1 km
Semi-major
6,861.2 km
B*
3.9253e-5
RAAN
5.3674°
Arg perigee
274.1442°
Mean anomaly
85.9234°
Rev number
13,849

§ Raw data

STARLINK-312671 59468U 24068P   26264.34064284  .00000818  00000+0  39253-4 0  99952 59468  43.0057   5.3674 0001540 274.1442  85.9234 15.27576730138491

JSON: /api/v1/satellites/59468 · /tle

For live sub-satellite position, see the globe view (requires WebGL).

§ Visibility from observer

Set your observer location to see the next 7 days of passes ≥ 10°. The values pass through the URL so the page stays shareable.

No JS? Fill the form by hand. The geolocation button needs JavaScript.